QPF
0.00 0.00 0.00 0.02 0.12 0.02 0.00 0.00 0.00 0.00 0.00 0.00 0.00 0.00 0.00 0.03 0.04 0.03 0.00 0.00 0.00 0.00 0.00 0.00 0.01 0.00 0.00 0.00 0.00 0.00 0.00 0.00 0.00 0.00 0.00 0.00 0.00 0.00 0.00 0.00 0.00 0.00 0.00 0.00 0.00 0.00 0.00 0.00 0.00
0.00 0.00 0.00 0.04 0.07 0.09 0.04 0.00 0.00 0.00 0.00 0.00 0.00 0.01 0.00 0.00 0.00 0.00 0.00 0.00 0.00 0.00 0.00 0.00 0.00 0.00 0.00 0.00 0.00 0.00 0.00 0.00 0.00 0.00 0.00 0.00 0.00 0.00 0.00 0.00 0.00 0.00 0.00 0.00 0.00 0.01 0.00 0.00 0.00
0.00 0.00 0.01 0.05 0.10 0.12 0.07 0.00 0.00 0.00 0.00 0.01 0.01 0.00 0.00 0.00 0.00 0.00 0.00 0.00 0.00 0.00 0.00 0.00 0.00 0.00 0.00 0.00 0.00 0.00 0.00 0.00 0.00 0.00 0.00 0.00 0.00 0.00 0.00 0.00 0.00 0.00 0.01 0.00 0.00 0.00 0.00 0.00 0.00
0.00 0.00 0.02 0.05 0.08 0.02 0.03 0.01 0.01 0.02 0.01 0.00 0.02 0.00 0.00 0.00 0.00 0.00 0.00 0.00 0.00 0.00 0.00 0.00 0.00 0.00 0.00 0.00 0.00 0.00 0.00 0.00 0.00 0.00 0.00 0.00 0.00 0.00 0.00 0.00 0.00 0.01 0.03 0.06 0.06 0.01 0.02 0.07 0.04
0.00 0.00 0.00 0.01 0.00 0.00 0.00 0.00 0.00 0.00 0.01 0.01 0.00 0.00 0.00 0.00 0.00 0.00 0.00 0.01 0.00 0.00 0.00 0.00 0.00 0.00 0.01 0.01 0.00 0.00 0.00 0.00 0.00 0.01 0.01 0.01 0.00 0.00 0.00 0.00 0.03 0.05 0.01 0.02 0.06 0.02 0.05 0.12 0.20
0.00 0.00 0.00 0.00 0.00 0.00 0.00 0.00 0.01 0.00 0.00 0.01 0.01 0.00 0.00 0.00 0.00 0.00 0.00 0.00 0.00 0.00 0.00 0.00 0.00 0.02 0.02 0.02 0.01 0.02 0.00 0.02 0.02 0.03 0.01 0.01 0.00 0.00 0.00 0.01 0.03 0.04 0.02 0.00 0.03 0.01 0.00 0.01 0.04
0.00 0.00 0.00 0.00 0.00 0.00 0.00 0.00 0.00 0.02 0.01 0.03 0.01 0.00 0.00 0.00 0.00 0.00 0.00 0.01 0.01 0.01 0.00 0.00 0.00 0.00 0.01 0.01 0.01 0.01 0.00 0.00 0.01 0.01 0.01 0.01 0.00 0.00 0.00 0.01 0.02 0.03 0.02 0.00 0.00 0.00 0.00 0.00 0.00
0.00 0.00 0.00 0.00 0.00 0.00 0.00 0.00 0.00 0.01 0.00 0.01 0.02 0.00 0.00 0.00 0.00 0.00 0.00 0.00 0.00 0.00 0.00 0.00 0.00 0.00 0.01 0.01 0.00 0.00 0.00 0.00 0.00 0.00 0.00 0.00 0.01 0.05 0.13 0.11 0.05 0.01 0.00 0.00 0.00 0.00 0.00 0.00 0.00
0.00 0.00 0.00 0.00 0.00 0.00 0.00 0.00 0.00 0.00 0.00 0.00 0.01 0.01 0.00 0.00 0.00 0.00 0.00 0.00 0.04 0.04 0.00 0.00 0.00 0.00 0.00 0.00 0.00 0.00 0.00 0.00 0.00 0.00 0.00 0.01 0.04 0.13 0.23 0.14 0.17 0.05 0.01 0.00 0.00 0.00 0.00 0.00 0.00
0.00 0.00 0.00 0.00 0.00 0.00 0.00 0.00 0.00 0.02 0.00 0.00 0.00 0.00 0.00 0.00 0.00 0.00 0.00 0.01 0.01 0.00 0.01 0.00 0.00 0.01 0.00 0.00 0.00 0.00 0.00 0.00 0.00 0.00 0.00 0.00 0.05 0.02 0.10 0.19 0.18 0.06 0.01 0.01 0.00 0.00 0.00 0.00 0.01
0.00 0.00 0.00 0.00 0.00 0.00 0.00 0.00 0.00 0.01 0.01 0.00 0.00 0.00 0.00 0.00 0.00 0.00 0.00 0.01 0.00 0.00 0.00 0.00 0.00 0.06 0.01 0.00 0.00 0.00 0.00 0.00 0.00 0.00 0.00 0.00 0.01 0.16 0.18 0.18 0.11 0.02 0.00 0.02 0.01 0.00 0.00 0.01 0.09
0.00 0.00 0.00 0.00 0.00 0.00 0.00 0.00 0.00 0.00 0.00 0.00 0.00 0.00 0.00 0.00 0.00 0.00 0.00 0.02 0.01 0.00 0.00 0.00 0.00 0.01 0.00 0.00 0.00 0.00 0.00 0.00 0.00 0.00 0.00 0.00 0.00 0.12 0.20 0.10 0.03 0.02 0.08 0.07 0.06 0.01 0.02 0.01 0.04
0.00 0.00 0.00 0.00 0.00 0.00 0.00 0.00 0.00 0.00 0.00 0.00 0.00 0.00 0.00 0.00 0.00 0.00 0.00 0.01 0.01 0.00 0.00 0.00 0.00 0.00 0.01 0.00 0.00 0.00 0.00 0.00 0.00 0.00 0.00 0.00 0.02 0.10 0.14 0.06 0.01 0.06 0.19 0.07 0.05 0.03 0.00 0.00 0.01
0.00 0.00 0.00 0.00 0.00 0.00 0.00 0.00 0.01 0.00 0.00 0.00 0.00 0.00 0.00 0.00 0.00 0.00 0.01 0.02 0.00 0.00 0.04 0.01 0.00 0.00 0.00 0.01 0.00 0.00 0.00 0.00 0.00 0.00 0.01 0.00 0.05 0.06 0.07 0.04 0.00 0.04 0.08 0.02 0.02 0.00 0.00 0.00 0.00
0.00 0.00 0.00 0.00 0.00 0.00 0.00 0.01 0.00 0.00 0.00 0.00 0.00 0.00 0.00 0.00 0.00 0.00 0.00 0.00 0.00 0.00 0.00 0.02 0.01 0.00 0.00 0.01 0.00 0.00 0.00 0.01 0.02 0.00 0.00 0.01 0.02 0.06 0.10 0.06 0.01 0.00 0.02 0.00 0.00 0.00 0.00 0.00 0.00
0.00 0.00 0.00 0.00 0.00 0.00 0.00 0.00 0.00 0.00 0.00 0.00 0.00 0.00 0.00 0.00 0.00 0.00 0.00 0.00 0.00 0.00 0.00 0.01 0.01 0.00 0.00 0.03 0.00 0.00 0.00 0.01 0.02 0.03 0.00 0.00 0.00 0.01 0.06 0.02 0.00 0.00 0.01 0.00 0.00 0.00 0.00 0.00 0.00
0.00 0.00 0.00 0.00 0.00 0.00 0.00 0.00 0.00 0.00 0.00 0.00 0.00 0.00 0.00 0.00 0.00 0.00 0.01 0.02 0.00 0.00 0.00 0.00 0.00 0.00 0.00 0.01 0.06 0.01 0.00 0.01 0.03 0.01 0.00 0.00 0.00 0.00 0.06 0.02 0.04 0.06 0.04 0.01 0.01 0.02 0.00 0.00 0.00
0.00 0.00 0.00 0.00 0.00 0.00 0.00 0.00 0.00 0.00 0.00 0.00 0.00 0.00 0.00 0.00 0.00 0.00 0.00 0.00 0.00 0.00 0.00 0.00 0.00 0.00 0.01 0.05 0.04 0.02 0.00 0.02 0.03 0.00 0.00 0.00 0.00 0.00 0.03 0.08 0.13 0.09 0.05 0.03 0.06 0.06 0.01 0.00 0.00
0.00 0.00 0.00 0.00 0.00 0.00 0.00 0.00 0.00 0.00 0.00 0.00 0.00 0.00 0.00 0.00 0.00 0.00 0.00 0.00 0.00 0.00 0.00 0.00 0.00 0.00 0.00 0.02 0.03 0.02 0.03 0.08 0.09 0.02 0.00 0.00 0.00 0.00 0.01 0.05 0.16 0.12 0.08 0.05 0.05 0.07 0.01 0.01 0.02
0.00 0.00 0.00 0.00 0.00 0.00 0.00 0.00 0.00 0.00 0.00 0.00 0.00 0.00 0.00 0.00 0.00 0.00 0.00 0.00 0.00 0.00 0.00 0.00 0.00 0.00 0.00 0.00 0.01 0.01 0.01 0.10 0.11 0.06 0.03 0.01 0.00 0.03 0.01 0.01 0.07 0.09 0.04 0.05 0.07 0.06 0.02 0.01 0.05
0.00 0.00 0.00 0.00 0.00 0.00 0.00 0.00 0.00 0.00 0.00 0.00 0.00 0.01 0.00 0.00 0.00 0.00 0.00 0.00 0.00 0.00 0.00 0.00 0.00 0.00 0.00 0.01 0.00 0.04 0.17 0.29 0.22 0.19 0.06 0.08 0.14 0.08 0.10 0.09 0.01 0.06 0.03 0.02 0.10 0.08 0.04 0.04 0.04
0.00 0.00 0.00 0.00 0.00 0.00 0.00 0.00 0.00 0.00 0.00 0.00 0.00 0.01 0.01 0.00 0.00 0.00 0.00 0.00 0.00 0.00 0.00 0.00 0.00 0.00 0.00 0.00 0.00 0.09 0.20 0.10 0.07 0.02 0.01 0.04 0.17 0.15 0.10 0.08 0.04 0.01 0.01 0.02 0.03 0.04 0.07 0.04 0.03
0.00 0.00 0.00 0.00 0.00 0.00 0.00 0.00 0.00 0.00 0.00 0.00 0.00 0.00 0.01 0.00 0.00 0.00 0.00 0.00 0.00 0.00 0.00 0.00 0.00 0.00 0.00 0.00 0.01 0.02 0.06 0.01 0.02 0.03 0.05 0.04 0.04 0.03 0.08 0.08 0.10 0.06 0.01 0.02 0.03 0.13 0.11 0.02 0.00
0.00 0.00 0.00 0.00 0.00 0.00 0.00 0.00 0.00 0.00 0.00 0.00 0.00 0.00 0.00 0.00 0.00 0.00 0.00 0.00 0.00 0.00 0.00 0.00 0.00 0.00 0.00 0.00 0.02 0.13 0.15 0.04 0.21 0.17 0.11 0.03 0.02 0.00 0.10 0.11 0.16 0.09 0.05 0.12 0.04 0.04 0.02 0.01 0.00
0.00 0.00 0.00 0.00 0.00 0.00 0.00 0.00 0.00 0.01 0.02 0.00 0.00 0.00 0.00 0.00 0.00 0.00 0.00 0.00 0.00 0.00 0.00 0.00 0.00 0.00 0.00 0.00 0.00 0.00 0.05 0.04 0.11 0.08 0.01 0.01 0.04 0.17 0.23 0.31 0.19 0.14 0.13 0.13 0.05 0.07 0.05 0.02 0.00
0.00 0.00 0.00 0.00 0.00 0.00 0.00 0.00 0.00 0.01 0.00 0.01 0.00 0.00 0.00 0.00 0.00 0.00 0.00 0.00 0.00 0.00 0.00 0.00 0.00 0.00 0.00 0.00 0.00 0.00 0.00 0.01 0.02 0.01 0.01 0.03 0.13 0.13 0.21 0.21 0.16 0.11 0.06 0.03 0.07 0.12 0.10 0.05 0.04
0.00 0.00 0.00 0.00 0.00 0.00 0.00 0.01 0.03 0.01 0.02 0.01 0.00 0.00 0.00 0.00 0.00 0.00 0.00 0.00 0.00 0.00 0.00 0.00 0.00 0.00 0.00 0.00 0.00 0.00 0.00 0.00 0.03 0.05 0.03 0.01 0.02 0.01 0.01 0.16 0.31 0.32 0.10 0.06 0.10 0.12 0.08 0.11 0.13
0.00 0.00 0.00 0.00 0.00 0.00 0.00 0.01 0.05 0.06 0.08 0.06 0.00 0.00 0.00 0.00 0.00 0.00 0.00 0.00 0.00 0.00 0.00 0.00 0.00 0.00 0.00 0.00 0.01 0.01 0.00 0.00 0.00 0.00 0.00 0.00 0.00 0.00 0.00 0.03 0.10 0.23 0.19 0.13 0.12 0.01 0.03 0.12 0.07
0.00 0.00 0.00 0.00 0.00 0.00 0.00 0.00 0.01 0.03 0.08 0.13 0.03 0.00 0.00 0.00 0.00 0.00 0.00 0.00 0.00 0.00 0.00 0.00 0.00 0.00 0.01 0.01 0.02 0.03 0.01 0.00 0.00 0.00 0.00 0.00 0.00 0.00 0.00 0.00 0.00 0.04 0.13 0.17 0.13 0.15 0.07 0.07 0.03
0.00 0.00 0.00 0.00 0.00 0.00 0.00 0.00 0.01 0.01 0.02 0.09 0.03 0.00 0.00 0.00 0.00 0.00 0.00 0.00 0.00 0.00 0.00 0.00 0.00 0.01 0.01 0.00 0.00 0.00 0.00 0.00 0.00 0.00 0.00 0.00 0.00 0.00 0.00 0.01 0.04 0.06 0.04 0.07 0.08 0.07 0.11 0.17 0.07
MSLP
1004.00 1003.26 1002.97 1003.67 1002.11 1004.14 1003.14 1002.25 1002.37 1001.48 1001.01 1001.44 1002.52 1003.46 1004.68 1006.40 1006.65 1007.71 1008.38 1009.24 1010.47 1011.85 1013.01 1013.88 1014.42 1014.87 1015.23 1015.70 1016.02 1016.30 1016.51 1016.77 1017.01 1017.20 1017.43 1017.63 1017.70 1017.73 1017.85 1017.89 1017.89 1017.99 1018.04 1018.02 1018.21 1018.36 1018.49 1018.62 1018.76
1003.08 1001.82 1001.47 1006.11 1007.01 1004.86 1003.14 1002.45 1002.22 1001.88 1002.20 1002.16 1002.76 1004.74 1004.75 1005.36 1006.18 1007.06 1008.14 1009.23 1010.42 1011.57 1012.87 1013.63 1014.53 1014.94 1015.34 1015.83 1016.15 1016.47 1016.77 1017.02 1017.20 1017.32 1017.61 1017.78 1017.93 1017.98 1018.09 1018.22 1018.31 1018.40 1018.47 1018.44 1018.49 1018.57 1018.56 1018.65 1018.76
1002.98 1000.90 1002.13 1006.69 1006.42 1004.60 1003.87 1002.63 1002.45 1002.69 1002.80 1003.08 1003.11 1004.15 1005.14 1005.69 1006.44 1007.17 1008.15 1009.07 1010.26 1011.59 1012.39 1013.86 1014.55 1015.10 1015.54 1015.89 1016.34 1016.58 1016.97 1017.14 1017.36 1017.48 1017.70 1017.95 1018.18 1018.26 1018.37 1018.52 1018.61 1018.68 1018.72 1018.76 1018.76 1018.76 1018.78 1018.75 1018.88
1001.73 1000.65 1004.75 1005.38 1004.39 1004.37 1003.60 1003.07 1003.02 1003.30 1002.98 1003.06 1004.42 1005.17 1005.62 1005.96 1006.37 1007.24 1008.20 1009.10 1010.25 1011.17 1012.71 1014.16 1014.75 1015.22 1015.73 1016.00 1016.42 1016.80 1017.06 1017.25 1017.44 1017.64 1017.92 1018.16 1018.41 1018.48 1018.54 1018.69 1018.82 1018.81 1018.91 1018.92 1018.86 1018.82 1018.79 1018.94 1019.16
1000.55 1000.00 1002.34 1004.12 1003.34 1002.29 1001.98 1002.74 1002.93 1003.13 1003.58 1003.68 1004.44 1005.59 1006.22 1006.63 1006.75 1007.54 1008.52 1009.17 1010.17 1011.71 1013.21 1014.31 1014.92 1015.43 1015.82 1016.22 1016.54 1016.94 1017.19 1017.33 1017.57 1017.88 1018.18 1018.38 1018.49 1018.61 1018.76 1018.89 1018.97 1018.96 1018.94 1018.96 1019.07 1019.13 1019.20 1019.47 1019.22
999.70 1000.11 1003.18 1002.96 1001.95 1001.72 1001.76 1002.32 1002.75 1003.12 1003.84 1004.30 1004.87 1006.12 1006.85 1006.98 1007.39 1008.17 1009.16 1009.46 1010.57 1011.85 1013.10 1014.57 1015.21 1015.58 1016.01 1016.33 1016.72 1017.01 1017.26 1017.43 1017.71 1018.20 1018.40 1018.45 1018.54 1018.65 1018.66 1018.69 1018.93 1019.07 1019.01 1018.92 1019.16 1019.35 1019.40 1019.36 1019.28
999.59 1000.02 1001.96 1001.98 1001.98 1002.07 1002.00 1002.05 1003.03 1003.64 1003.52 1004.94 1005.07 1005.84 1006.81 1007.38 1007.68 1008.57 1009.75 1010.27 1011.00 1012.35 1013.41 1014.48 1015.15 1015.75 1016.10 1016.44 1016.80 1017.06 1017.32 1017.55 1017.90 1018.23 1018.32 1018.57 1018.59 1018.54 1018.60 1018.65 1018.60 1018.81 1019.01 1019.06 1019.24 1019.39 1019.44 1019.38 1019.35
998.96 999.42 1000.44 1001.76 1002.06 1002.17 1001.76 1001.99 1002.42 1002.60 1003.62 1004.35 1005.06 1006.09 1006.71 1007.47 1007.83 1008.82 1010.15 1011.16 1011.52 1012.70 1013.51 1014.25 1014.97 1015.67 1016.06 1016.52 1016.82 1017.12 1017.37 1017.76 1018.27 1018.51 1018.54 1018.70 1018.50 1018.67 1018.90 1018.91 1018.84 1018.63 1018.67 1019.13 1019.25 1019.45 1019.56 1019.32 1019.24
998.86 999.53 999.83 1000.35 1000.93 1001.56 1001.72 1001.74 1002.36 1002.18 1003.27 1004.05 1004.81 1005.54 1006.37 1007.50 1007.95 1009.10 1010.29 1011.32 1012.85 1012.70 1013.38 1013.64 1014.58 1015.32 1015.90 1016.49 1016.69 1017.31 1017.69 1017.83 1018.54 1018.84 1018.85 1018.40 1018.43 1018.98 1019.51 1019.73 1019.17 1018.63 1018.51 1018.92 1019.07 1019.35 1019.16 1019.18 1019.11
998.67 999.04 999.69 999.94 1000.41 1001.06 1001.49 1001.97 1002.59 1004.57 1003.12 1004.12 1005.44 1005.68 1006.59 1007.43 1007.95 1009.08 1010.29 1011.59 1012.28 1012.54 1013.14 1013.92 1014.56 1015.06 1016.10 1016.57 1016.74 1017.36 1017.61 1017.54 1018.39 1018.89 1018.88 1018.61 1019.07 1019.46 1019.31 1019.79 1019.28 1018.82 1018.47 1018.71 1018.87 1019.09 1019.08 1019.13 1018.94
999.14 999.51 999.94 1000.52 1000.78 1000.95 1002.18 1002.11 1003.11 1003.57 1003.34 1004.28 1005.61 1006.19 1006.78 1007.31 1008.02 1008.93 1009.71 1010.97 1011.86 1012.43 1013.08 1014.04 1014.55 1015.33 1016.03 1016.60 1017.05 1017.41 1017.63 1017.76 1018.23 1018.76 1018.76 1018.57 1018.80 1019.34 1020.78 1019.95 1019.12 1018.65 1018.33 1018.45 1018.55 1018.76 1018.82 1018.59 1018.89
998.85 999.36 999.71 1000.19 1000.45 1000.68 1001.92 1003.91 1002.63 1002.95 1003.57 1004.39 1005.59 1006.48 1006.91 1007.17 1008.08 1009.52 1009.62 1010.30 1010.98 1012.15 1012.95 1013.65 1014.40 1015.18 1016.06 1016.28 1016.63 1017.28 1017.78 1017.95 1018.28 1018.51 1018.50 1018.36 1018.21 1018.55 1018.67 1020.11 1018.60 1018.01 1018.02 1018.11 1018.06 1018.37 1018.43 1018.49 1018.79
998.84 999.52 999.71 1000.01 1000.16 1000.75 1001.51 1002.46 1002.89 1003.28 1003.77 1004.58 1005.67 1006.46 1006.93 1007.12 1007.82 1008.52 1009.39 1010.58 1011.56 1011.97 1012.66 1013.17 1014.03 1014.86 1015.51 1016.01 1016.86 1017.28 1017.38 1017.56 1017.83 1018.37 1018.26 1017.99 1017.70 1017.62 1017.83 1017.72 1017.66 1017.82 1017.98 1017.70 1017.74 1017.90 1017.80 1017.97 1017.55
998.75 999.23 999.30 999.70 1000.05 1000.65 1001.07 1002.88 1003.14 1003.64 1004.14 1004.70 1005.37 1005.93 1006.40 1006.91 1007.49 1008.49 1009.76 1010.68 1010.78 1011.99 1012.83 1013.23 1013.92 1014.67 1015.03 1015.82 1016.37 1016.73 1017.03 1017.12 1017.29 1017.54 1017.49 1017.56 1017.73 1017.64 1017.69 1017.72 1017.45 1017.30 1017.71 1017.38 1017.31 1017.16 1016.98 1017.20 1016.81
998.71 998.94 999.16 999.42 999.90 1001.43 1002.42 1002.72 1002.91 1003.90 1004.23 1004.55 1005.03 1005.42 1006.14 1006.35 1007.25 1007.96 1009.14 1010.09 1011.03 1011.96 1012.66 1013.46 1013.82 1014.15 1014.92 1015.60 1015.97 1016.40 1016.62 1016.72 1016.71 1017.04 1016.95 1017.10 1017.23 1017.48 1017.32 1017.46 1017.41 1016.85 1016.90 1016.70 1016.75 1016.80 1016.37 1016.57 1016.26
998.26 998.25 999.10 999.71 999.97 1001.56 1002.43 1002.57 1003.05 1003.50 1003.76 1004.08 1004.51 1005.06 1005.69 1006.13 1006.80 1007.84 1008.73 1009.41 1010.45 1011.59 1012.65 1013.12 1013.58 1013.98 1014.56 1015.23 1015.59 1015.90 1015.97 1016.20 1016.25 1016.20 1016.44 1016.52 1016.61 1016.64 1016.86 1017.06 1016.94 1016.85 1016.61 1016.46 1016.39 1016.23 1016.08 1016.06 1016.26
997.74 998.54 998.81 999.38 999.63 999.94 1000.82 1001.71 1002.57 1002.68 1002.92 1003.49 1003.98 1004.53 1005.20 1005.85 1006.73 1007.61 1008.79 1009.62 1010.06 1010.88 1011.72 1012.69 1013.34 1013.84 1014.23 1014.69 1014.95 1015.39 1015.30 1015.31 1015.56 1015.64 1015.70 1015.78 1015.84 1016.10 1016.55 1016.80 1016.90 1016.85 1016.69 1016.46 1016.44 1016.34 1016.10 1016.09 1016.29
997.97 998.59 998.25 998.74 999.59 999.61 1000.14 1000.86 1001.95 1002.18 1002.15 1002.53 1003.37 1004.21 1004.96 1005.43 1006.32 1007.03 1007.76 1008.79 1009.62 1010.60 1011.11 1011.97 1012.79 1013.39 1014.02 1014.45 1014.52 1014.57 1014.75 1015.06 1015.31 1015.21 1015.16 1015.34 1015.59 1015.74 1016.39 1016.73 1016.69 1016.51 1016.68 1016.51 1016.26 1016.23 1016.21 1016.18 1016.55
998.19 998.09 997.99 998.35 999.08 999.41 999.31 1000.82 1000.98 1001.51 1001.55 1001.85 1002.69 1003.39 1004.35 1004.89 1005.40 1006.46 1007.22 1007.80 1009.18 1009.87 1010.54 1011.44 1012.09 1012.75 1013.26 1013.62 1013.74 1014.01 1015.32 1015.66 1016.01 1015.43 1015.02 1014.98 1015.10 1015.33 1015.85 1016.27 1016.52 1016.33 1016.45 1016.26 1016.40 1016.54 1016.48 1016.65 1016.77
998.24 997.82 997.62 998.07 998.62 999.17 999.01 999.34 1000.14 1000.74 1000.80 1001.43 1003.17 1002.86 1003.52 1004.09 1004.93 1006.01 1006.40 1007.05 1007.90 1009.07 1010.11 1011.08 1011.76 1012.36 1012.84 1013.18 1013.30 1013.94 1014.41 1015.33 1015.57 1015.21 1014.79 1014.63 1014.76 1015.17 1015.46 1015.53 1015.89 1015.97 1016.30 1016.27 1016.37 1016.30 1016.56 1016.97 1017.33
997.90 997.34 997.68 998.07 998.23 998.74 998.77 999.12 999.61 1000.15 1000.50 1001.13 1002.15 1004.11 1005.91 1004.75 1004.34 1005.40 1005.80 1006.22 1007.13 1008.44 1009.66 1010.65 1011.46 1012.10 1012.59 1012.60 1012.71 1013.49 1014.01 1014.69 1015.21 1014.83 1014.10 1014.07 1014.80 1015.33 1015.09 1014.81 1014.98 1015.52 1015.90 1016.16 1016.37 1016.49 1016.67 1017.12 1017.47
997.23 997.58 997.71 998.20 998.33 998.04 998.29 998.64 999.30 999.68 1000.33 1001.14 1001.99 1003.64 1004.01 1003.90 1003.82 1004.59 1005.14 1005.68 1006.59 1007.88 1009.10 1010.06 1011.01 1011.74 1012.31 1012.56 1012.48 1012.79 1013.51 1013.99 1013.74 1013.49 1013.29 1013.58 1014.66 1014.92 1014.40 1014.81 1015.20 1015.31 1015.61 1015.81 1016.05 1016.09 1016.10 1016.56 1017.02
997.45 997.89 997.80 998.08 997.99 997.90 997.38 998.23 998.78 999.91 1000.71 1000.98 1001.42 1002.12 1003.15 1004.20 1002.61 1003.50 1004.13 1005.07 1005.79 1007.14 1008.42 1009.52 1010.54 1011.33 1011.84 1012.38 1012.63 1012.59 1012.62 1012.47 1013.41 1013.65 1013.21 1012.99 1013.47 1013.45 1013.52 1014.10 1014.29 1014.66 1015.35 1015.69 1015.63 1015.70 1015.89 1016.13 1016.47
997.31 997.83 997.94 998.02 998.08 997.76 997.37 997.97 999.46 1000.58 1002.25 1002.29 1000.88 1000.70 1002.08 1001.03 1001.34 1002.29 1003.19 1004.36 1005.26 1006.54 1007.75 1008.89 1010.06 1010.91 1011.64 1012.08 1012.52 1012.75 1012.52 1012.51 1013.90 1012.51 1013.77 1012.53 1012.59 1012.79 1013.16 1013.83 1014.18 1013.86 1014.71 1015.16 1015.34 1015.25 1015.39 1015.57 1015.99
997.37 997.58 997.21 997.35 997.39 997.31 998.22 998.61 1000.25 1001.76 1001.52 1001.83 1001.47 1000.17 999.92 999.90 1000.17 1001.36 1002.64 1003.54 1004.73 1006.07 1007.24 1008.36 1009.59 1010.54 1011.22 1011.81 1012.17 1012.52 1012.58 1012.32 1012.58 1013.07 1012.62 1012.42 1012.59 1013.57 1012.44 1011.43 1014.20 1013.82 1013.79 1014.53 1015.15 1015.35 1015.04 1015.11 1015.42
996.96 996.93 996.59 996.65 997.32 998.90 999.63 1001.69 1002.92 1002.96 1002.40 1001.98 1001.67 1000.03 999.74 999.40 1000.02 1001.17 1002.17 1003.56 1004.18 1005.74 1007.02 1007.92 1009.13 1010.18 1010.88 1011.40 1011.79 1012.04 1012.27 1012.36 1012.16 1012.24 1012.53 1012.80 1012.82 1013.08 1013.11 1013.14 1014.36 1014.28 1013.25 1014.03 1014.67 1015.06 1015.10 1014.73 1014.67
996.44 996.23 996.06 996.29 996.80 998.32 1001.27 1005.04 1004.08 1005.90 1006.18 1003.54 1001.74 1000.73 999.71 999.12 999.50 1000.07 1001.53 1003.21 1003.79 1005.35 1006.72 1007.68 1008.73 1009.70 1010.44 1010.94 1011.44 1011.71 1012.00 1012.31 1012.34 1012.27 1012.51 1012.58 1012.62 1012.24 1012.41 1013.62 1013.19 1013.90 1013.64 1014.09 1014.47 1014.90 1014.64 1014.34 1014.16
996.57 996.44 996.25 996.26 997.02 999.09 1002.53 1005.19 1007.24 1009.29 1009.00 1007.14 1003.10 1001.32 1000.00 999.70 999.78 1001.10 1002.15 1002.90 1004.13 1005.19 1006.32 1007.35 1008.31 1009.16 1009.82 1010.22 1010.84 1011.36 1011.85 1012.14 1012.24 1012.21 1012.33 1012.64 1012.96 1012.98 1012.46 1012.26 1012.53 1012.92 1013.50 1013.56 1013.89 1013.90 1013.74 1013.72 1013.59
996.94 996.89 996.68 996.33 996.93 998.52 1001.54 1003.30 1006.85 1008.35 1008.68 1007.40 1005.88 1002.23 1000.89 1000.45 1001.35 1002.18 1003.10 1004.36 1005.40 1005.79 1006.26 1006.94 1007.98 1008.93 1009.74 1010.43 1010.93 1011.34 1011.69 1012.01 1012.13 1012.06 1012.15 1012.47 1012.59 1012.83 1013.08 1012.94 1012.86 1012.99 1013.28 1013.50 1013.34 1013.20 1013.10 1013.06 1013.18
996.74 996.57 996.28 996.35 997.88 999.07 1000.78 1002.07 1005.44 1006.63 1008.02 1006.94 1004.98 1003.18 1002.31 1000.98 1002.10 1003.46 1004.67 1006.00 1006.64 1007.20 1007.65 1008.04 1008.87 1009.62 1010.37 1010.86 1011.15 1011.51 1011.70 1011.93 1011.82 1011.88 1012.01 1012.19 1012.35 1012.60 1012.76 1012.87 1012.91 1012.98 1012.91 1012.76 1012.68 1012.57 1012.37 1012.37 1012.52
Thickness
5871 5876 5876 5851 5778 5808 5803 5813 5828 5829 5839 5855 5849 5830 5816 5804 5792 5774 5821 5817 5809 5797 5787 5779 5774 5771 5768 5764 5761 5759 5756 5753 5752 5749 5747 5744 5744 5743 5742 5741 5741 5740 5740 5741 5740 5740 5739 5738 5737
5883 5885 5879 5795 5765 5778 5798 5831 5824 5837 5841 5852 5847 5817 5818 5806 5823 5818 5813 5817 5809 5799 5789 5783 5775 5771 5768 5764 5761 5758 5756 5753 5751 5750 5747 5745 5743 5742 5740 5739 5738 5737 5738 5738 5738 5738 5740 5740 5738
5881 5894 5847 5764 5768 5782 5783 5833 5833 5839 5844 5837 5835 5837 5821 5810 5823 5822 5826 5822 5810 5798 5792 5781 5776 5771 5768 5764 5760 5758 5756 5754 5751 5750 5748 5746 5742 5741 5740 5738 5737 5736 5737 5736 5736 5736 5737 5739 5739
5879 5878 5804 5769 5782 5798 5798 5828 5836 5828 5842 5846 5828 5807 5827 5836 5827 5830 5830 5824 5810 5802 5789 5778 5774 5770 5767 5765 5761 5758 5756 5754 5752 5750 5748 5745 5741 5741 5740 5739 5737 5737 5736 5737 5737 5738 5737 5737 5736
5890 5877 5826 5813 5821 5836 5844 5839 5841 5829 5829 5832 5829 5805 5807 5826 5835 5833 5825 5823 5810 5799 5786 5777 5772 5769 5767 5764 5761 5758 5756 5756 5754 5750 5746 5742 5741 5740 5738 5737 5736 5737 5737 5738 5737 5738 5736 5734 5737
5866 5866 5789 5795 5823 5839 5848 5848 5841 5834 5830 5826 5820 5806 5804 5829 5825 5825 5821 5818 5811 5798 5787 5776 5771 5768 5765 5763 5761 5759 5757 5756 5754 5748 5745 5743 5742 5740 5740 5740 5737 5735 5737 5740 5739 5737 5737 5737 5738
5859 5850 5804 5816 5821 5824 5836 5852 5832 5820 5830 5812 5829 5803 5812 5817 5827 5824 5817 5812 5808 5794 5786 5777 5771 5767 5765 5763 5760 5758 5756 5755 5751 5746 5746 5742 5741 5743 5741 5741 5741 5738 5736 5738 5739 5738 5738 5738 5736
5876 5864 5834 5822 5803 5813 5846 5848 5850 5840 5826 5843 5834 5798 5799 5817 5827 5821 5814 5803 5802 5794 5785 5779 5772 5767 5764 5760 5759 5756 5754 5752 5745 5744 5743 5740 5744 5743 5742 5742 5741 5742 5739 5737 5740 5738 5736 5738 5738
5893 5837 5826 5830 5826 5827 5849 5842 5853 5863 5841 5839 5836 5827 5829 5828 5828 5815 5804 5799 5787 5792 5786 5783 5775 5769 5765 5761 5759 5752 5750 5748 5742 5741 5741 5745 5748 5743 5738 5735 5738 5743 5743 5739 5741 5738 5741 5739 5739
5869 5844 5837 5857 5852 5841 5850 5847 5843 5806 5836 5829 5823 5834 5834 5827 5821 5807 5799 5789 5788 5790 5787 5783 5776 5772 5764 5761 5759 5752 5748 5748 5741 5740 5743 5746 5740 5737 5734 5735 5737 5741 5745 5742 5743 5740 5741 5739 5739
5865 5842 5855 5852 5857 5860 5842 5845 5838 5823 5824 5829 5814 5820 5825 5824 5818 5810 5805 5797 5794 5792 5789 5782 5778 5770 5765 5761 5756 5752 5748 5743 5740 5740 5746 5746 5741 5738 5720 5734 5739 5744 5747 5745 5747 5743 5742 5743 5749
5857 5867 5865 5862 5867 5861 5842 5820 5840 5843 5835 5843 5833 5827 5824 5821 5815 5804 5807 5805 5802 5794 5789 5787 5780 5772 5765 5762 5759 5752 5746 5742 5741 5742 5747 5750 5748 5740 5726 5734 5744 5753 5750 5753 5754 5748 5746 5747 5747
5862 5862 5867 5869 5871 5865 5861 5844 5838 5837 5846 5845 5835 5826 5821 5822 5819 5819 5813 5806 5798 5794 5791 5790 5784 5775 5769 5764 5757 5751 5748 5749 5748 5746 5748 5753 5755 5756 5754 5754 5757 5753 5755 5761 5759 5755 5752 5749 5754
5876 5869 5872 5874 5870 5868 5855 5835 5839 5839 5845 5836 5831 5826 5826 5824 5822 5818 5808 5799 5805 5797 5790 5790 5785 5777 5773 5768 5763 5757 5753 5752 5754 5753 5754 5755 5754 5755 5754 5756 5759 5759 5760 5764 5763 5764 5763 5758 5759
5878 5857 5868 5872 5872 5850 5846 5829 5828 5841 5842 5832 5829 5830 5826 5829 5826 5819 5814 5808 5804 5798 5795 5788 5787 5782 5777 5771 5768 5763 5759 5758 5760 5760 5761 5760 5758 5757 5759 5758 5760 5764 5766 5768 5767 5768 5772 5771 5771
5866 5873 5835 5861 5868 5853 5844 5806 5836 5848 5841 5832 5832 5832 5828 5829 5828 5825 5821 5817 5812 5803 5795 5794 5791 5787 5781 5775 5771 5768 5768 5767 5767 5768 5765 5765 5765 5764 5763 5762 5763 5765 5767 5770 5772 5773 5775 5774 5772
5870 5829 5838 5844 5874 5867 5853 5826 5844 5856 5848 5836 5836 5834 5830 5829 5827 5825 5817 5813 5814 5808 5801 5795 5792 5786 5784 5781 5777 5774 5776 5776 5776 5773 5771 5769 5769 5768 5764 5764 5763 5765 5767 5770 5772 5773 5774 5770 5770
5840 5834 5855 5843 5857 5866 5850 5841 5848 5856 5851 5845 5841 5838 5834 5831 5828 5830 5828 5824 5818 5811 5808 5800 5794 5791 5787 5783 5782 5782 5781 5777 5775 5776 5775 5773 5770 5768 5763 5762 5765 5767 5767 5768 5772 5772 5773 5773 5768
5862 5858 5854 5863 5869 5858 5859 5839 5848 5858 5856 5851 5846 5844 5840 5837 5842 5839 5836 5832 5820 5817 5812 5804 5799 5795 5792 5788 5787 5785 5769 5768 5765 5766 5772 5774 5772 5770 5766 5764 5764 5767 5768 5769 5770 5768 5768 5766 5767
5857 5857 5859 5868 5872 5861 5861 5855 5857 5860 5862 5862 5832 5830 5852 5848 5844 5838 5839 5836 5831 5822 5816 5808 5803 5799 5796 5793 5794 5786 5780 5771 5757 5770 5774 5775 5773 5768 5767 5769 5769 5770 5767 5767 5767 5767 5765 5762 5759
5858 5861 5856 5853 5866 5869 5861 5847 5850 5862 5869 5869 5864 5835 5814 5842 5846 5840 5840 5841 5837 5826 5819 5812 5807 5803 5800 5801 5800 5791 5784 5775 5774 5774 5782 5781 5773 5766 5771 5776 5776 5772 5768 5765 5765 5764 5763 5754 5754
5850 5872 5867 5854 5846 5827 5868 5816 5849 5861 5856 5862 5864 5832 5831 5838 5855 5849 5846 5843 5840 5832 5828 5820 5813 5808 5804 5803 5801 5796 5784 5777 5784 5788 5790 5785 5774 5772 5776 5776 5772 5772 5770 5767 5765 5767 5766 5759 5752
5851 5869 5864 5858 5849 5850 5862 5840 5847 5861 5846 5854 5866 5866 5822 5814 5863 5856 5853 5850 5850 5843 5834 5827 5819 5812 5809 5804 5801 5799 5795 5798 5785 5782 5786 5790 5786 5783 5781 5777 5775 5773 5768 5766 5768 5767 5764 5762 5758
5878 5859 5857 5858 5850 5822 5861 5860 5832 5834 5825 5829 5868 5877 5848 5865 5875 5868 5863 5858 5853 5849 5841 5832 5822 5815 5810 5806 5802 5797 5797 5796 5779 5770 5781 5795 5795 5789 5776 5769 5770 5775 5769 5768 5768 5771 5768 5765 5762
5863 5844 5819 5815 5820 5823 5865 5852 5831 5833 5842 5845 5846 5874 5883 5876 5880 5871 5861 5856 5853 5846 5842 5836 5825 5816 5813 5808 5805 5801 5799 5800 5794 5787 5792 5793 5789 5772 5759 5753 5772 5777 5776 5769 5764 5764 5770 5769 5765
5851 5852 5829 5798 5805 5807 5851 5815 5812 5840 5847 5856 5857 5878 5883 5883 5878 5872 5867 5859 5854 5848 5842 5838 5828 5818 5815 5811 5807 5805 5802 5799 5799 5798 5795 5790 5787 5782 5782 5780 5762 5770 5779 5774 5768 5764 5767 5771 5772
5853 5843 5879 5850 5859 5832 5814 5770 5804 5809 5813 5845 5862 5869 5872 5880 5875 5824 5867 5861 5857 5849 5842 5836 5829 5822 5817 5813 5809 5806 5803 5800 5798 5799 5796 5794 5791 5794 5791 5773 5766 5762 5772 5771 5768 5763 5766 5772 5773
5861 5877 5839 5852 5811 5793 5771 5769 5771 5758 5755 5763 5849 5858 5867 5874 5878 5871 5866 5861 5855 5850 5845 5839 5832 5824 5819 5816 5811 5806 5801 5799 5798 5798 5795 5791 5786 5782 5785 5786 5783 5778 5774 5773 5770 5771 5773 5772 5772
5849 5840 5851 5863 5854 5808 5762 5795 5787 5772 5762 5730 5800 5850 5855 5858 5859 5859 5856 5852 5846 5845 5843 5838 5830 5822 5814 5809 5805 5802 5799 5796 5795 5794 5792 5788 5786 5782 5776 5778 5779 5777 5774 5772 5772 5774 5775 5773 5773
5876 5862 5866 5838 5811 5828 5801 5791 5800 5790 5773 5772 5802 5838 5847 5852 5850 5846 5842 5835 5830 5827 5826 5823 5815 5810 5805 5801 5798 5795 5793 5790 5790 5788 5788 5787 5782 5780 5777 5774 5773 5772 5773 5774 5774 5772 5775 5774 5773